Regional Weather Roundup
Issued by NWS

Home | Current Version | Previous Version | Graphics & Text | Print | Product List | Glossary On
Versions: 1 2 3 4 5 6 7 8 9 10 11 12 13 14 15 16 17 18 19 20 21 22 23 24 25 26 27 28 29 30 31 32 33 34 35 36 37 38 39 40 41 42 43 44 45 46 47 48 49 50
000
ASUS45 KCYS 280610
RWRWY

WYOMING REGIONAL WEATHER ROUNDUP
NATIONAL WEATHER SERVICE CHEYENNE WY
1100 PM MST SAT DEC 27 2014

NOTE:  "FAIR" INDICATES FEW OR NO CLOUDS BELOW 12,000 FEET
WITH NO SIGNIFICANT WEATHER AND/OR OBSTRUCTIONS TO VISIBILITY.

WYZ001-280700-
YELLOWSTONE NATIONAL PARK

CITY           SKY/WX    TMP DP  RH WIND       PRES   REMARKS
LK YELLOWSTONE   N/A     11   7  84 VRB3      29.96F
6HR MIN TEMP:  10; 6HR MAX TEMP:  11; 6HR PCP:  0.06;

W YELLOWSTONE  NOT AVBL

$$
WYZ002>013-054>058-071-098>099-280700-
NORTHERN WYOMING

CITY           SKY/WX    TMP DP  RH WIND       PRES   REMARKS
JACKSON        CLOUDY    16  14  93 SW8       30.05F WCI   5
CODY           MOCLDY    27   7  43 W20G30    29.89F WCI  13
GREYBULL       FAIR      -2  -4  91 CALM      30.03F
6HR MIN TEMP:  -3; 6HR MAX TEMP:   6;

WORLAND        FAIR      -7 -11  83 SW7       30.01S WCI -21
6HR MIN TEMP: -12; 6HR MAX TEMP:   2;

SHERIDAN       FAIR       6   0  76 W3        29.92F
6HR MIN TEMP:   4; 6HR MAX TEMP:  19;

BUFFALO        FAIR      15   1  53 W3        29.90F
6HR MIN TEMP:   9; 6HR MAX TEMP:  21;

GILLETTE       FAIR      18   5  57 SW16      29.93F WCI   3
6HR MIN TEMP:  15; 6HR MAX TEMP:  20;

HULETT           N/A    N/A N/A N/A MISG        N/A
NEWCASTLE      FAIR      10   7  85 CALM      30.01F

$$
WYZ014>020-022>026-101>103-280700-
CENTRAL WYOMING

CITY           SKY/WX    TMP DP  RH WIND       PRES   REMARKS
BIG PINEY      FAIR     -10 -15  78 E6        30.08S WCI -23
6HR MIN TEMP: -15; 6HR MAX TEMP:   5;

PINEDALE       FAIR      -8 -13  77 NW5       30.08S WCI -19
DUBOIS         NOT AVBL
LANDER         FAIR       7   0  73 NW6       29.96F WCI  -3
6HR MIN TEMP:   2; 6HR MAX TEMP:  12;

RIVERTON       FAIR       9   0  67 SW12      29.97F WCI  -6
6HR MIN TEMP:   3; 6HR MAX TEMP:  10;

CASPER         FAIR      15   7  70 SW16      29.99F WCI  -1
6HR MIN TEMP:  14; 6HR MAX TEMP:  18;

DOUGLAS        FAIR      15   5  64 NW7       30.00F WCI   5
6HR MIN TEMP:  10; 6HR MAX TEMP:  20;


$$
WYZ021-027>030-104>119-280700-
SOUTHERN WYOMING

CITY           SKY/WX    TMP DP  RH WIND       PRES   REMARKS
EVANSTON       CLOUDY    14   3  61 SW21G29   30.09F WCI  -4
6HR MIN TEMP:  11; 6HR MAX TEMP:  15;

FORT BRIDGER   CLOUDY    15   6  68 W9        30.12S WCI   3
ROCK SPRINGS   CLOUDY    14   6  70 SW15      30.09F WCI  -1
6HR MIN TEMP:  13; 6HR MAX TEMP:  15;

DIXON          CLOUDY    18   7  62 S13       30.17F WCI   5
RAWLINS        MOCLDY    12   3  67 W16       30.06R WCI  -5
6HR MIN TEMP:  12; 6HR MAX TEMP:  14;

SARATOGA       CLOUDY     9   1  72 SE3       30.07S
LARAMIE        FAIR      11   0  61 SW17      29.97S WCI  -6
6HR MIN TEMP:   8; 6HR MAX TEMP:  13;

CHEYENNE       FAIR      20   2  45 W18G26    29.99S WCI   5
6HR MIN TEMP:  14; 6HR MAX TEMP:  22;

TORRINGTON     FAIR      16   5  62 VRB5      30.04F WCI   9
6HR MIN TEMP:  10; 6HR MAX TEMP:  24;

PINE BLUFFS    FAIR       0  -6  78 MISG      30.04F

$$


USA.gov is the U.S. government's official web portal to all federal, state and local government web resources and services.